AXY1 PANC-YBBN

Flight info

Callsign AXY1
Flight time N/A
Altitude 30000
Route TED J115 ENA DCT CLAMS V334 WALUS DCT WORRI DCT YURUP DCT COBIS DCT ZOLOP DCT 55N60 DCT 54N161W 53N162W 52N164W 51N165W 50N166W 49N167W 47N168W 46N169W DCT 45N70 DCT 41N173W 38N174W 36N176W 34N177W 32N178W 30N179W DCT 28E80 DCT 24N178E 22N177E 17N175E 14N174E 12N173E 09N172E DCT MAJ A598 MARTI DCT 03N169E 01N168E DCT NI A598 PONUX H224 TEBOT
Aircraft A346/H-SDE2E3FGHIJ3J4J5M1RWXY/LB1D1

Departure

Time N/A
Airport Ted Stevens Anchorage International Airport (PANC)

Arrival

Time 2026-04-29 06:21
Airport Brisbane International Airport (YBBN)
Time Latitude Longitude Altitude Speed Heading
2026-04-29 04:34 -15.34262 157.92390 37885 ft 481 kts 207°
2026-04-29 04:35 -15.40595 157.90053 37891 ft 480 kts 207°
2026-04-29 04:35 -15.46912 157.87718 37890 ft 480 kts 207°
2026-04-29 04:36 -15.53215 157.85387 37890 ft 481 kts 207°
2026-04-29 04:36 -15.59526 157.83052 37889 ft 481 kts 207°
2026-04-29 04:37 -15.65847 157.80713 37891 ft 481 kts 208°
2026-04-29 04:37 -15.72228 157.78348 37895 ft 482 kts 207°
2026-04-29 04:38 -15.78548 157.76006 37896 ft 482 kts 208°
2026-04-29 04:38 -15.84899 157.73648 37896 ft 481 kts 208°
2026-04-29 04:39 -15.91214 157.71306 37895 ft 482 kts 208°
2026-04-29 04:39 -15.97532 157.68959 37895 ft 483 kts 208°
2026-04-29 04:40 -16.03882 157.66600 37896 ft 482 kts 208°
2026-04-29 04:40 -16.10191 157.64253 37897 ft 481 kts 208°
2026-04-29 04:41 -16.16519 157.61897 37898 ft 482 kts 208°
2026-04-29 04:41 -16.22828 157.59549 37900 ft 481 kts 208°
2026-04-29 04:42 -16.29134 157.57199 37907 ft 483 kts 208°
2026-04-29 04:42 -16.35489 157.54828 37909 ft 484 kts 209°
2026-04-29 04:43 -16.41856 157.52452 37912 ft 484 kts 209°
2026-04-29 04:43 -16.48208 157.50082 37912 ft 484 kts 209°
2026-04-29 04:44 -16.54566 157.47711 37913 ft 483 kts 209°
2026-04-29 04:44 -16.60869 157.45355 37913 ft 484 kts 209°
2026-04-29 04:45 -16.67229 157.42969 37916 ft 483 kts 210°
2026-04-29 04:45 -16.73569 157.40584 37914 ft 484 kts 209°
2026-04-29 04:46 -16.79895 157.38208 37921 ft 483 kts 209°
2026-04-29 04:46 -16.86254 157.35817 37920 ft 484 kts 210°
2026-04-29 04:47 -16.92614 157.33429 37925 ft 483 kts 210°
2026-04-29 04:47 -16.98949 157.31045 37917 ft 484 kts 210°
2026-04-29 04:48 -17.05334 157.28642 37920 ft 485 kts 210°
2026-04-29 04:48 -17.11690 157.26247 37917 ft 485 kts 210°
2026-04-29 04:49 -17.18041 157.23853 37925 ft 484 kts 210°
2026-04-29 04:49 -17.24401 157.21452 37926 ft 485 kts 210°
2026-04-29 04:50 -17.30752 157.19054 37929 ft 484 kts 210°
2026-04-29 04:50 -17.37084 157.16663 37927 ft 483 kts 210°
2026-04-29 04:51 -17.43376 157.14284 37931 ft 483 kts 210°
2026-04-29 04:51 -17.49767 157.11864 37927 ft 486 kts 210°
2026-04-29 04:52 -17.56123 157.09456 37933 ft 485 kts 210°
2026-04-29 04:52 -17.62443 157.07062 37932 ft 485 kts 210°
2026-04-29 04:53 -17.68799 157.04654 37935 ft 485 kts 210°
2026-04-29 04:53 -17.75199 157.02223 37942 ft 486 kts 210°
2026-04-29 04:54 -17.81545 156.99814 37947 ft 485 kts 210°
2026-04-29 04:54 -17.87892 156.97403 37959 ft 483 kts 210°
2026-04-29 04:55 -17.94254 156.94983 37956 ft 483 kts 210°
2026-04-29 04:55 -18.00580 156.92577 37965 ft 482 kts 210°
2026-04-29 04:56 -18.06889 156.90172 37959 ft 482 kts 210°
2026-04-29 04:56 -18.13238 156.87749 37956 ft 484 kts 210°
2026-04-29 04:57 -18.19632 156.85310 37958 ft 482 kts 210°
2026-04-29 04:57 -18.25964 156.82890 37960 ft 484 kts 210°
2026-04-29 04:58 -18.32285 156.80475 37959 ft 484 kts 210°
2026-04-29 04:58 -18.38627 156.78050 37957 ft 484 kts 210°
2026-04-29 04:59 -18.44968 156.75624 37957 ft 484 kts 210°
2026-04-29 04:59 -18.51373 156.73172 37954 ft 484 kts 210°
2026-04-29 05:00 -18.57713 156.70741 37951 ft 484 kts 209°
2026-04-29 05:00 -18.64085 156.68295 37954 ft 484 kts 209°
2026-04-29 05:01 -18.70381 156.65878 37955 ft 483 kts 209°
2026-04-29 05:01 -18.76715 156.63446 37954 ft 484 kts 209°
2026-04-29 05:02 -18.83064 156.61003 37956 ft 485 kts 209°
2026-04-29 05:02 -18.89391 156.58568 37958 ft 484 kts 209°
2026-04-29 05:03 -18.95741 156.56123 37954 ft 484 kts 208°
2026-04-29 05:03 -19.02106 156.53668 37961 ft 484 kts 208°
2026-04-29 05:04 -19.08469 156.51215 37960 ft 486 kts 208°
2026-04-29 05:04 -19.14834 156.48758 37961 ft 484 kts 208°
2026-04-29 05:05 -19.21249 156.46278 37963 ft 483 kts 208°
2026-04-29 05:05 -19.27581 156.43832 37962 ft 483 kts 208°
2026-04-29 05:06 -19.33907 156.41383 37963 ft 483 kts 208°
2026-04-29 05:06 -19.40268 156.38917 37969 ft 482 kts 208°
2026-04-29 05:07 -19.46583 156.36470 37968 ft 483 kts 208°
2026-04-29 05:07 -19.52896 156.34023 37969 ft 482 kts 208°
2026-04-29 05:08 -19.59220 156.31567 37974 ft 481 kts 208°
2026-04-29 05:08 -19.65551 156.29109 37974 ft 481 kts 208°
2026-04-29 05:09 -19.71851 156.26659 37977 ft 481 kts 207°
2026-04-29 05:09 -19.78127 156.24220 37978 ft 480 kts 207°
2026-04-29 05:10 -19.84421 156.21770 37978 ft 480 kts 207°
2026-04-29 05:10 -19.90693 156.19339 37980 ft 480 kts 207°
2026-04-29 05:11 -19.97009 156.16895 37980 ft 481 kts 207°
2026-04-29 05:11 -20.03319 156.14452 37983 ft 481 kts 207°
2026-04-29 05:12 -20.09609 156.12015 37983 ft 481 kts 207°
2026-04-29 05:12 -20.15935 156.09563 37985 ft 480 kts 206°
2026-04-29 05:13 -20.22263 156.07108 37982 ft 480 kts 206°
2026-04-29 05:13 -20.28565 156.04662 37986 ft 480 kts 206°
2026-04-29 05:14 -20.34875 156.02211 37983 ft 480 kts 206°
2026-04-29 05:14 -20.41186 155.99756 37986 ft 481 kts 206°
2026-04-29 05:15 -20.47483 155.97305 37989 ft 480 kts 206°
2026-04-29 05:15 -20.53755 155.94862 37989 ft 479 kts 206°
2026-04-29 05:16 -20.60017 155.92421 37993 ft 478 kts 206°
2026-04-29 05:16 -20.66301 155.89967 37993 ft 478 kts 206°
2026-04-29 05:17 -20.72565 155.87520 37996 ft 479 kts 206°
2026-04-29 05:17 -20.78781 155.85091 37992 ft 478 kts 206°
2026-04-29 05:18 -20.85088 155.82620 37989 ft 479 kts 206°
2026-04-29 05:18 -20.91360 155.80164 37988 ft 479 kts 206°
2026-04-29 05:19 -20.97611 155.77713 37988 ft 478 kts 206°
2026-04-29 05:19 -21.03848 155.75267 37985 ft 477 kts 206°
2026-04-29 05:20 -21.10089 155.72816 37989 ft 477 kts 206°
2026-04-29 05:20 -21.16361 155.70351 37992 ft 477 kts 206°
2026-04-29 05:21 -21.22595 155.67899 37992 ft 477 kts 206°
2026-04-29 05:21 -21.28870 155.65427 37996 ft 476 kts 205°
2026-04-29 05:22 -21.35097 155.62973 37997 ft 476 kts 206°
2026-04-29 05:22 -21.41322 155.60518 38002 ft 475 kts 206°
2026-04-29 05:23 -21.47598 155.58040 38003 ft 476 kts 206°
2026-04-29 05:23 -21.53839 155.55572 38007 ft 476 kts 205°
2026-04-29 05:24 -21.60069 155.53107 38011 ft 474 kts 205°
2026-04-29 05:24 -21.66291 155.50642 38015 ft 475 kts 205°
2026-04-29 05:25 -21.72527 155.48172 38016 ft 475 kts 205°
2026-04-29 05:25 -21.78728 155.45712 38023 ft 475 kts 205°
2026-04-29 05:26 -21.84917 155.43256 38019 ft 475 kts 205°
2026-04-29 05:26 -21.91141 155.40781 38019 ft 475 kts 205°
2026-04-29 05:27 -21.97341 155.38315 38017 ft 474 kts 205°
2026-04-29 05:27 -22.06670 155.34601 38025 ft 474 kts 205°
2026-04-29 05:28 -22.12838 155.32141 38023 ft 473 kts 205°
2026-04-29 05:28 -22.19064 155.29656 38022 ft 475 kts 205°
2026-04-29 05:29 -22.25002 155.27280 38032 ft 475 kts 205°
2026-04-29 05:29 -22.31211 155.24802 38029 ft 475 kts 205°
2026-04-29 05:30 -22.37432 155.22314 38029 ft 474 kts 205°
2026-04-29 05:30 -22.43599 155.19846 38032 ft 475 kts 205°
2026-04-29 05:31 -22.49826 155.17349 38033 ft 475 kts 205°
2026-04-29 05:31 -22.56068 155.14844 38030 ft 476 kts 205°
2026-04-29 05:32 -22.62252 155.12357 38036 ft 476 kts 205°
2026-04-29 05:32 -22.68464 155.09862 38034 ft 476 kts 205°
2026-04-29 05:33 -22.74688 155.07358 38034 ft 475 kts 205°
2026-04-29 05:33 -22.80886 155.04860 38036 ft 475 kts 205°
2026-04-29 05:34 -22.87094 155.02356 38040 ft 477 kts 205°
2026-04-29 05:34 -22.93303 154.99849 38040 ft 476 kts 205°
2026-04-29 05:35 -22.99524 154.97334 38041 ft 476 kts 205°
2026-04-29 05:35 -23.05754 154.94815 38041 ft 475 kts 205°
2026-04-29 05:36 -23.11989 154.92290 38042 ft 475 kts 205°
2026-04-29 05:36 -23.18191 154.89777 38047 ft 475 kts 205°
2026-04-29 05:37 -23.24388 154.87260 38046 ft 476 kts 205°
2026-04-29 05:37 -23.30598 154.84740 38053 ft 475 kts 204°
2026-04-29 05:38 -23.36741 154.82243 38057 ft 473 kts 204°
2026-04-29 05:38 -23.42914 154.79732 38059 ft 473 kts 204°
2026-04-29 05:39 -23.49087 154.77217 38062 ft 472 kts 204°
2026-04-29 05:39 -23.55251 154.74705 38065 ft 471 kts 205°
2026-04-29 05:40 -23.61366 154.72209 38064 ft 473 kts 205°
2026-04-29 05:40 -23.67538 154.69685 38068 ft 471 kts 204°
2026-04-29 05:41 -23.73688 154.67171 38070 ft 471 kts 204°
2026-04-29 05:41 -23.79804 154.64667 38070 ft 470 kts 204°
2026-04-29 05:42 -23.85906 154.62166 38074 ft 470 kts 204°
2026-04-29 05:42 -23.92063 154.59642 38077 ft 469 kts 204°
2026-04-29 05:43 -23.98164 154.57135 38082 ft 470 kts 204°
2026-04-29 05:43 -24.04286 154.54620 38081 ft 468 kts 204°
2026-04-29 05:44 -24.10359 154.52122 38080 ft 468 kts 204°
2026-04-29 05:44 -24.16454 154.49612 38082 ft 467 kts 204°
2026-04-29 05:45 -24.22446 154.47144 38082 ft 466 kts 204°
2026-04-29 05:45 -24.28529 154.44632 38087 ft 465 kts 204°
2026-04-29 05:46 -24.34597 154.42127 38087 ft 466 kts 204°
2026-04-29 05:46 -24.40682 154.39610 38083 ft 465 kts 203°
2026-04-29 05:47 -24.46763 154.37094 38091 ft 466 kts 204°
2026-04-29 05:47 -24.52811 154.34590 38096 ft 464 kts 204°
2026-04-29 05:48 -24.58910 154.32065 38102 ft 464 kts 204°
2026-04-29 05:48 -24.64968 154.29552 38100 ft 463 kts 203°
2026-04-29 05:49 -24.71157 154.27397 38102 ft 465 kts 197°
2026-04-29 05:49 -24.77550 154.25932 38099 ft 468 kts 192°
2026-04-29 05:50 -24.83993 154.24945 38101 ft 468 kts 190°
2026-04-29 05:50 -24.90502 154.23988 38104 ft 467 kts 190°
2026-04-29 05:51 -24.96956 154.23035 38111 ft 467 kts 191°
2026-04-29 05:51 -25.03400 154.22078 38117 ft 467 kts 190°
2026-04-29 05:52 -25.09862 154.21118 38112 ft 466 kts 190°
2026-04-29 05:52 -25.16291 154.20160 38120 ft 466 kts 190°
2026-04-29 05:53 -25.22721 154.19203 38113 ft 466 kts 190°
2026-04-29 05:53 -25.29148 154.18242 38121 ft 465 kts 190°
2026-04-29 05:54 -25.35588 154.17281 38108 ft 465 kts 190°
2026-04-29 05:54 -25.38788 154.16803 37705 ft 467 kts 190°
2026-04-29 05:54 -25.42036 154.16318 37144 ft 467 kts 190°
2026-04-29 05:55 -25.45265 154.15836 36518 ft 467 kts 190°
2026-04-29 05:55 -25.48521 154.15349 35853 ft 468 kts 190°
2026-04-29 05:55 -25.51739 154.14868 35193 ft 468 kts 190°
2026-04-29 05:55 -25.54934 154.14389 34538 ft 468 kts 191°
2026-04-29 05:56 -25.58183 154.13901 33861 ft 468 kts 190°
2026-04-29 05:56 -25.61397 154.13420 33184 ft 470 kts 191°
2026-04-29 05:56 -25.64648 154.12932 32536 ft 471 kts 191°
2026-04-29 05:56 -25.67911 154.12439 31870 ft 473 kts 191°
2026-04-29 05:57 -25.71157 154.11951 31177 ft 475 kts 190°
2026-04-29 05:57 -25.74451 154.11453 30453 ft 478 kts 190°
2026-04-29 05:57 -25.77745 154.10956 29709 ft 482 kts 190°
2026-04-29 05:57 -25.81092 154.10451 28914 ft 485 kts 189°
2026-04-29 05:58 -25.84473 154.09941 28135 ft 488 kts 189°
2026-04-29 05:58 -25.87809 154.09439 27577 ft 485 kts 189°
2026-04-29 05:58 -25.91139 154.08937 27095 ft 480 kts 189°
2026-04-29 05:58 -25.94415 154.08446 26538 ft 477 kts 189°
2026-04-29 05:59 -25.97736 154.07945 26016 ft 473 kts 189°
2026-04-29 05:59 -26.00988 154.07455 25468 ft 470 kts 189°
2026-04-29 05:59 -26.04197 154.06972 24957 ft 467 kts 189°
2026-04-29 05:59 -26.07434 154.06482 24436 ft 463 kts 189°
2026-04-29 06:00 -26.10628 154.06000 23905 ft 460 kts 189°
2026-04-29 06:00 -26.13803 154.05519 23431 ft 456 kts 189°
2026-04-29 06:00 -26.16902 154.05051 22985 ft 451 kts 188°
2026-04-29 06:00 -26.20010 154.04579 22550 ft 446 kts 188°
2026-04-29 06:01 -26.23064 154.04115 22127 ft 441 kts 188°
2026-04-29 06:01 -26.26104 154.03654 21712 ft 436 kts 188°
2026-04-29 06:01 -26.29085 154.03201 21290 ft 431 kts 188°
2026-04-29 06:01 -26.32026 154.02754 20864 ft 427 kts 188°
2026-04-29 06:02 -26.34989 154.02304 20424 ft 424 kts 187°
2026-04-29 06:02 -26.37898 154.01860 19977 ft 420 kts 187°
2026-04-29 06:02 -26.40805 154.01417 19552 ft 421 kts 187°
2026-04-29 06:02 -26.43670 154.00984 19141 ft 419 kts 187°
2026-04-29 06:03 -26.46553 154.00546 18731 ft 415 kts 187°
2026-04-29 06:03 -26.49425 154.00110 18313 ft 412 kts 187°
2026-04-29 06:03 -26.52275 153.99675 17865 ft 409 kts 186°
2026-04-29 06:03 -26.55080 153.99249 17421 ft 406 kts 186°
2026-04-29 06:04 -26.57853 153.98828 16997 ft 404 kts 186°
2026-04-29 06:04 -26.60654 153.98402 16571 ft 401 kts 186°
2026-04-29 06:04 -26.63400 153.97983 16157 ft 399 kts 186°
2026-04-29 06:04 -26.66158 153.97563 15733 ft 397 kts 186°
2026-04-29 06:05 -26.68870 153.97150 15316 ft 395 kts 186°
2026-04-29 06:05 -26.71591 153.96735 14898 ft 392 kts 186°
2026-04-29 06:05 -26.74280 153.96324 14487 ft 389 kts 186°
2026-04-29 06:05 -26.76959 153.95915 14072 ft 386 kts 186°
2026-04-29 06:06 -26.79651 153.95505 13651 ft 383 kts 186°
2026-04-29 06:06 -26.82256 153.95108 13248 ft 380 kts 186°
2026-04-29 06:06 -26.84899 153.94702 12819 ft 377 kts 186°
2026-04-29 06:06 -26.87486 153.94305 12389 ft 374 kts 186°
2026-04-29 06:07 -26.90047 153.93832 11940 ft 373 kts 193°
2026-04-29 06:07 -26.92366 153.92540 11485 ft 376 kts 215°
2026-04-29 06:07 -26.94140 153.90439 11038 ft 377 kts 235°
2026-04-29 06:07 -26.95348 153.87758 10705 ft 383 kts 244°
2026-04-29 06:08 -26.96449 153.85069 10588 ft 382 kts 244°
2026-04-29 06:08 -26.97554 153.82402 10462 ft 369 kts 243°
2026-04-29 06:08 -26.98628 153.79840 10349 ft 356 kts 243°
2026-04-29 06:08 -26.99676 153.77362 10205 ft 345 kts 243°
2026-04-29 06:09 -27.00673 153.75003 10130 ft 332 kts 243°
2026-04-29 06:09 -27.01647 153.72700 10048 ft 320 kts 243°
2026-04-29 06:09 -27.02577 153.70503 9964 ft 308 kts 243°
2026-04-29 06:09 -27.03485 153.68355 9700 ft 304 kts 243°
2026-04-29 06:10 -27.04392 153.66209 9351 ft 303 kts 242°
2026-04-29 06:10 -27.05249 153.64050 9015 ft 302 kts 247°
2026-04-29 06:10 -27.05926 153.61812 8688 ft 301 kts 252°
2026-04-29 06:10 -27.06470 153.59543 8370 ft 300 kts 253°
2026-04-29 06:11 -27.06987 153.57307 8057 ft 298 kts 253°
2026-04-29 06:11 -27.07504 153.55057 7749 ft 296 kts 253°
2026-04-29 06:11 -27.08015 153.52846 7457 ft 293 kts 253°
2026-04-29 06:11 -27.08530 153.50621 7162 ft 291 kts 253°
2026-04-29 06:12 -27.09036 153.48448 6868 ft 289 kts 253°
2026-04-29 06:12 -27.09543 153.46266 6576 ft 287 kts 252°
2026-04-29 06:12 -27.10046 153.44107 6283 ft 285 kts 252°
2026-04-29 06:12 -27.10543 153.41969 5998 ft 283 kts 252°
2026-04-29 06:13 -27.11038 153.39836 5714 ft 281 kts 252°
2026-04-29 06:13 -27.11526 153.37732 5488 ft 277 kts 252°
2026-04-29 06:13 -27.12006 153.35681 5417 ft 265 kts 250°
2026-04-29 06:13 -27.12606 153.33766 5310 ft 255 kts 243°
2026-04-29 06:14 -27.13347 153.31950 5026 ft 254 kts 240°
2026-04-29 06:14 -27.14111 153.30170 4774 ft 250 kts 240°
2026-04-29 06:14 -27.14855 153.28445 4493 ft 245 kts 240°
2026-04-29 06:14 -27.15618 153.26749 4219 ft 238 kts 232°
2026-04-29 06:15 -27.16672 153.25444 4095 ft 219 kts 213°
2026-04-29 06:15 -27.17915 153.24535 3952 ft 203 kts 202°
2026-04-29 06:15 -27.19137 153.23839 3872 ft 193 kts 199°
2026-04-29 06:15 -27.20310 153.23202 3643 ft 181 kts 199°
2026-04-29 06:16 -27.21415 153.22597 3392 ft 170 kts 199°
2026-04-29 06:16 -27.22446 153.22020 3161 ft 162 kts 199°
2026-04-29 06:16 -27.23451 153.21454 2963 ft 162 kts 199°
2026-04-29 06:16 -27.24463 153.20880 2764 ft 161 kts 199°
2026-04-29 06:17 -27.25461 153.20309 2565 ft 161 kts 199°
2026-04-29 06:17 -27.26458 153.19737 2361 ft 160 kts 199°
2026-04-29 06:17 -27.27455 153.19163 2155 ft 160 kts 199°
2026-04-29 06:17 -27.28452 153.18590 1948 ft 159 kts 199°
2026-04-29 06:18 -27.29438 153.18025 1737 ft 159 kts 200°
2026-04-29 06:18 -27.30426 153.17458 1529 ft 158 kts 200°
2026-04-29 06:18 -27.31403 153.16899 1323 ft 158 kts 200°
2026-04-29 06:18 -27.32398 153.16328 1114 ft 158 kts 200°
2026-04-29 06:19 -27.33379 153.15768 909 ft 158 kts 201°
2026-04-29 06:19 -27.34360 153.15207 708 ft 158 kts 201°
2026-04-29 06:19 -27.35351 153.14639 504 ft 158 kts 202°
2026-04-29 06:19 -27.36333 153.14078 300 ft 158 kts 202°
2026-04-29 06:20 -27.37319 153.13524 103 ft 158 kts 203°
2026-04-29 06:20 -27.38249 153.12993 30 ft 128 kts 208°
2026-04-29 06:20 -27.38896 153.12622 30 ft 92 kts 205°
2026-04-29 06:20 -27.39360 153.12349 30 ft 54 kts 208°
2026-04-29 06:21 -27.39573 153.12210 30 ft 17 kts 246°
2026-04-29 06:21 -27.39563 153.12087 30 ft 7 kts 292°
2026-04-29 06:21 -27.39561 153.12082 30 ft 0 kts 292°
2026-04-29 06:21 -27.39557 153.12071 30 ft 3 kts 292°
2026-04-29 06:22 -27.39551 153.12038 30 ft 4 kts 253°
2026-04-29 06:22 -27.39582 153.11998 30 ft 10 kts 217°
2026-04-29 06:22 -27.39660 153.11948 30 ft 14 kts 207°
2026-04-29 06:22 -27.39759 153.11891 30 ft 16 kts 207°
2026-04-29 06:23 -27.39869 153.11829 30 ft 18 kts 207°
2026-04-29 06:23 -27.39991 153.11758 30 ft 20 kts 207°
2026-04-29 06:23 -27.40123 153.11682 30 ft 18 kts 206°
2026-04-29 06:23 -27.40231 153.11620 30 ft 14 kts 214°
2026-04-29 06:24 -27.40244 153.11525 30 ft 14 kts 285°
2026-04-29 06:24 -27.40201 153.11415 30 ft 16 kts 290°
2026-04-29 06:24 -27.40225 153.11316 30 ft 14 kts 225°
2026-04-29 06:24 -27.40286 153.11270 30 ft 11 kts 211°
2026-04-29 06:25 -27.40365 153.11221 30 ft 14 kts 207°
2026-04-29 06:25 -27.40421 153.11183 30 ft 7 kts 232°
2026-04-29 06:25 -27.40424 153.11136 30 ft 6 kts 283°
2026-04-29 06:25 -27.40411 153.11104 30 ft 1 kts 295°